Location: St. Louis
(38.6270°N, 90.1994°W)
Time: 08:29:53
(UTC-06:00)

A-11 Canister half - Pass Details

Date: 07 December 2021
Orbit: 1524 x 1684 km, 47.3° (Epoch: 17 January)

Event Time Altitude Azimuth Distance (km) Brightness Sun altitude
Rises 06:08:38 0° 299° (WNW) 4,924 - -10.9°
Reaches altitude 10° 06:11:49 10° 300° (WNW) 3,922 - -10.3°
Exits shadow 06:12:11 11° 300° (WNW) 3,809 10.4 -10.3°
Maximum altitude 06:21:55 89° 31° (NNE) 1,634 9.2 -8.5°
Drops below altitude 10° 06:31:39 10° 122° (ESE) 3,791 12.8 -6.8°
Sets 06:34:40 0° 123° (ESE) 4,753 13.9 -6.2°
